FW9470 Weather Reports


Display with metric or nautical units.
time (UTC)temp
F
wind
direction
speed
MPH
gust
MPH
rain 1hr
in
rain 24hr
in
rain mn
in
humidity
%
barometer
mb
20260505170034 76 238 4.0 11.0 0.00 0.00 0.00 37 1015.3
20260505164536 75 248 6.0 16.0 0.00 0.00 0.00 45 1015.4
20260505163032 75 229 3.0 11.0 0.00 0.00 0.00 43 1015.6
20260505161531 74 244 7.0 12.0 0.00 0.00 0.00 49 1015.8
20260505153033 72 360 2.0 8.0 0.00 0.00 0.00 59 1016.1
20260505151532 70 294 2.0 8.0 0.00 0.00 0.00 62 1016.2
20260505124536 55 0 0.0 0.0 0.00 0.00 0.00 95 1015.6
20260505123049 51 0 0.0 0.0 0.00 0.00 0.00 96 1015.4
20260505121535 49 0 0.0 0.0 0.00 0.00 0.00 96 1015.3
20260505120041 48 0 0.0 0.0 0.00 0.00 0.00 96 1015.5
20260505114545 47 0 0.0 0.0 0.00 0.00 0.00 96 1015.1
20260505113032 46 0 0.0 0.0 0.00 0.00 0.00 95 1015.2
20260505111532 46 0 0.0 0.0 0.00 0.00 0.00 95 1015.3
20260505101530 46 0 0.0 0.0 0.00 0.00 0.00 95 1015.0
20260505100034 46 0 0.0 0.0 0.00 0.00 0.00 95 1014.7
20260505094530 47 0 0.0 0.0 0.00 0.00 0.00 95 1014.8
20260505093040 47 0 0.0 0.0 0.00 0.00 0.00 94 1014.8
20260505091540 47 0 0.0 0.0 0.00 0.00 0.00 94 1014.6
20260505090044 47 0 0.0 0.0 0.00 0.00 0.00 94 1014.6
20260505084530 47 0 0.0 0.0 0.00 0.00 0.00 94 1014.5
20260505083030 47 0 0.0 0.0 0.00 0.00 0.00 94 1014.5
20260505081537 47 0 0.0 0.0 0.00 0.00 0.00 93 1014.4
20260505080046 48 0 0.0 0.0 0.00 0.00 0.00 93 1014.4
20260505074532 48 0 0.0 0.0 0.00 0.00 0.00 93 1014.2
20260505073045 48 0 0.0 0.0 0.00 0.00 0.00 92 1014.2
20260505071532 48 0 0.0 0.0 0.00 0.00 0.00 92 1014.3
20260505070032 48 0 0.0 1.0 0.00 0.00 0.00 92 1014.3
20260505064532 49 0 0.0 2.0 0.00 0.00 0.00 91 1014.3
20260505063033 49 0 0.0 0.0 0.00 0.00 0.00 91 1014.2
20260505061530 50 0 0.0 0.0 0.00 0.00 0.00 90 1014.2
20260505060034 50 0 0.0 0.0 0.00 0.00 0.00 90 1014.1
20260505054532 50 0 0.0 0.0 0.00 0.00 0.00 89 1014.1
20260505053032 50 0 0.0 0.0 0.00 0.00 0.00 88 1014.1
20260505051536 51 0 0.0 0.0 0.00 0.00 0.00 88 1014.3
20260505050104 51 0 0.0 0.0 0.00 0.00 0.00 88 1014.4
20260505041547 53 0 0.0 0.0 0.00 0.00 0.00 85 1014.4
20260505040037 53 0 0.0 0.0 0.00 0.00 0.00 85 1014.3
20260505034532 53 0 0.0 0.0 0.00 0.00 0.00 84 1014.6
20260505033032 54 0 0.0 0.0 0.00 0.00 0.00 84 1014.4
20260505031536 54 0 0.0 0.0 0.00 0.00 0.00 83 1014.5
20260505030035 55 0 0.0 0.0 0.00 0.00 0.00 82 1014.5
20260505024530 56 0 0.0 0.0 0.00 0.00 0.00 81 1014.6
20260505023039 56 0 0.0 0.0 0.00 0.00 0.00 80 1014.4
20260505021534 57 0 0.0 0.0 0.00 0.00 0.00 78 1014.3
20260505020034 57 0 0.0 0.0 0.00 0.00 0.00 77 1014.2
20260505014538 58 0 0.0 0.0 0.00 0.00 0.00 76 1014.1
20260505013034 59 0 0.0 0.0 0.00 0.00 0.00 74 1013.9
20260505011532 60 0 0.0 0.0 0.00 0.00 0.00 73 1013.8
20260505010033 61 0 0.0 0.0 0.00 0.00 0.00 71 1013.7
20260505004537 62 0 0.0 0.0 0.00 0.00 0.00 70 1013.6
20260505003030 64 0 0.0 0.0 0.00 0.00 0.00 65 1013.6
20260505001530 65 0 0.0 0.0 0.00 0.00 0.00 64 1013.6
20260505000039 67 0 0.0 0.0 0.00 0.00 0.00 62 1013.6
20260504234536 68 0 0.0 1.0 0.00 0.00 0.00 60 1013.3
20260504233032 70 0 0.0 2.0 0.00 0.00 0.00 54 1013.1
20260504231530 74 198 0.0 5.0 0.00 0.00 0.00 48 1013.2
20260504230030 76 207 3.0 8.0 0.00 0.00 0.00 37 1013.1
20260504224530 76 182 2.0 9.0 0.00 0.00 0.00 39 1013.1
20260504223034 77 261 3.0 7.0 0.00 0.00 0.00 38 1013.3
20260504221535 76 360 2.0 9.0 0.00 0.00 0.00 41 1013.2
20260504220030 76 221 2.0 7.0 0.00 0.00 0.00 36 1013.3
20260504214531 76 221 3.0 8.0 0.00 0.00 0.00 36 1013.2
20260504213052 77 227 2.0 5.0 0.00 0.00 0.00 34 1013.2
20260504211530 76 229 3.0 10.0 0.00 0.00 0.00 33 1013.3
20260504210032 77 248 4.0 11.0 0.00 0.00 0.00 32 1013.2
20260504204531 77 216 2.0 8.0 0.00 0.00 0.00 34 1013.2
20260504203035 76 266 4.0 12.0 0.00 0.00 0.00 32 1013.4
20260504201534 78 288 4.0 12.0 0.00 0.00 0.00 31 1013.3
20260504200030 78 229 3.0 8.0 0.00 0.00 0.00 33 1013.4
20260504194534 77 251 3.0 9.0 0.00 0.00 0.00 31 1013.6
20260504193040 77 259 5.0 9.0 0.00 0.00 0.00 32 1013.7
20260504191532 77 167 1.0 9.0 0.00 0.00 0.00 32 1013.9
20260504190031 76 217 6.0 11.0 0.00 0.00 0.00 34 1014.3
20260504184533 76 360 3.0 6.0 0.00 0.00 0.00 34 1014.6
20260504183035 75 255 3.0 8.0 0.00 0.00 0.00 33 1014.6
20260504181535 74 360 1.0 9.0 0.00 0.00 0.00 37 1014.7
20260504180033 74 360 3.0 8.0 0.00 0.00 0.00 34 1015.0
20260504174530 74 360 2.0 8.0 0.00 0.00 0.00 37 1015.2
20260504173042 72 214 3.0 8.0 0.00 0.00 0.00 36 1015.3
20260504171536 72 241 1.0 9.0 0.00 0.00 0.00 40 1015.3